Theta_e
346 348 349 348 349 349 348 347 348 350 350 344 344 344 344 344 344 344 349 350 351 352 351 349 351 351 343 342 349 344 344 347 342
339 343 348 349 349 350 350 350 349 349 345 339 340 343 344 345 344 345 351 349 348 352 352 351 352 353 342 341 344 345 346 348 343
337 338 344 347 349 349 350 351 351 352 347 339 335 338 341 342 344 344 345 346 346 347 350 349 351 353 347 343 345 347 343 349 349
336 338 342 347 348 348 350 350 351 353 354 349 343 341 338 339 341 342 342 344 345 345 346 346 346 350 341 342 346 347 344 345 352
335 337 339 343 345 347 348 349 350 350 352 354 353 346 341 338 337 338 340 341 343 344 345 346 346 346 346 339 348 349 344 343 350
334 335 337 339 340 341 344 347 349 349 350 351 353 354 351 342 339 338 339 338 339 341 343 345 346 346 346 343 337 341 342 342 343
332 334 336 337 339 339 340 343 347 349 349 350 352 353 354 349 342 339 338 338 338 340 341 343 344 346 346 345 341 336 339 345 343
332 334 335 336 340 341 343 344 346 349 349 348 350 351 351 344 342 342 341 340 340 341 341 342 343 344 345 345 345 344 336 337 339
329 329 329 332 337 340 344 347 349 350 349 348 348 349 346 341 342 342 342 342 342 342 342 342 342 343 344 345 345 344 343 334 334
329 329 330 332 336 339 342 346 346 342 345 349 349 346 344 343 344 343 342 342 343 342 342 344 342 342 343 344 345 345 344 341 335
329 329 330 332 333 334 340 341 342 348 349 348 343 341 342 343 343 343 344 343 342 342 343 343 342 342 342 343 344 345 345 344 345
329 330 330 331 331 331 332 335 339 345 347 350 350 343 341 341 342 342 342 342 342 343 349 351 356 357 355 351 350 346 345 346 346
330 329 329 330 330 331 332 333 337 343 347 345 340 342 342 341 341 341 341 342 345 350 350 355 357 358 357 357 358 357 354 352 351
336 335 334 332 333 333 331 335 339 339 344 337 332 341 344 343 343 342 342 345 349 352 353 355 354 351 353 351 349 347 346 349 352
338 336 337 333 334 334 335 337 328 328 330 328 334 339 347 343 343 345 350 344 352 355 356 355 352 349 347 346 341 344 337 337 353
343 342 340 335 338 334 337 333 328 327 327 329 335 341 345 346 345 346 349 354 352 356 357 357 357 357 354 353 349 341 336 336 351
346 345 340 342 340 336 345 338 329 330 332 334 337 342 343 342 342 349 350 357 358 358 358 358 357 356 355 349 344 354 342 348 355
347 344 354 350 350 354 354 340 338 338 337 339 338 339 342 349 354 346 357 359 360 360 359 359 359 359 358 356 358 356 352 355 357
353 353 353 355 356 358 362 357 345 356 343 342 348 351 356 357 358 359 360 356 357 359 360 360 359 359 361 359 356 354 354 356 357
350 349 349 350 354 355 359 358 355 353 350 349 354 354 352 349 350 347 346 348 353 352 353 353 354 353 354 356 356 353 343 340 345
Wind_Speed
25 30 33 36 39 40 39 39 42 42 41 45 43 42 41 39 38 36 32 30 25 21 21 19 18 19 21 23 20 18 19 15 14
27 27 32 35 38 41 40 38 41 47 49 47 46 45 44 43 41 40 33 33 31 28 24 21 20 20 22 24 23 21 20 18 19
25 27 30 34 35 39 42 41 42 44 47 48 47 49 48 46 45 42 41 40 37 34 30 28 24 22 23 26 25 25 24 21 22
29 29 28 32 35 35 38 40 38 40 42 47 48 46 47 48 47 45 42 44 43 40 37 35 30 30 26 28 28 27 28 26 22
27 26 26 26 28 29 30 35 39 41 42 41 43 46 45 45 45 46 44 43 44 42 40 38 35 33 32 32 30 30 32 31 27
15 20 21 23 23 26 30 33 38 40 40 42 40 41 43 46 46 46 49 46 43 43 42 41 38 37 37 35 36 37 37 37 34
7 9 13 19 23 26 27 30 35 44 42 37 38 38 39 46 49 49 48 49 46 45 43 43 42 42 40 39 38 40 41 37 38
4 5 7 12 17 19 20 25 34 41 41 42 38 43 44 45 47 50 51 51 51 48 46 44 43 44 45 43 42 41 44 46 45
18 18 18 14 16 17 18 21 26 31 36 40 43 44 47 45 45 46 50 52 53 50 49 47 45 46 48 49 48 48 46 46 49
18 20 17 14 14 17 18 20 20 24 30 32 38 46 47 45 46 45 45 45 47 49 50 48 48 48 49 52 52 51 50 48 47
30 30 24 18 18 15 17 18 20 20 23 32 37 39 42 45 46 45 42 41 43 44 46 48 48 49 50 52 55 54 52 50 47
28 30 32 26 24 21 20 20 19 21 23 27 31 38 38 41 42 41 41 41 42 41 38 38 36 34 38 46 47 52 53 52 52
23 27 27 29 29 28 25 26 20 24 26 29 32 35 36 36 37 39 39 38 37 35 34 32 28 29 31 33 32 32 39 44 45
22 19 19 20 22 24 27 21 21 27 26 27 28 30 31 33 34 35 34 33 32 30 30 27 30 30 32 31 28 26 23 37 43
32 32 28 24 23 20 20 21 24 24 25 24 24 27 28 30 32 31 27 32 29 28 28 29 35 34 31 29 32 42 29 57 38
30 29 28 24 22 18 18 23 25 23 23 23 23 24 28 29 27 25 25 26 24 24 26 26 28 30 33 35 35 36 45 46 34
26 25 24 22 19 17 15 20 22 22 21 23 24 23 23 22 22 22 21 21 20 22 23 25 25 27 31 28 29 27 34 31 27
26 20 17 15 14 12 13 16 17 17 18 17 20 20 20 21 20 21 20 21 21 20 20 20 20 23 25 26 28 31 34 28 29
13 10 10 11 11 10 10 11 16 12 16 18 19 20 19 18 18 19 21 25 25 25 23 24 26 26 21 24 25 25 27 31 27
13 13 12 14 13 14 14 15 17 16 18 18 17 19 21 19 17 18 18 17 15 22 22 21 20 20 23 30 26 12 5 4 6
Wind_Direction
208 207 208 206 207 207 207 207 209 211 216 221 220 222 225 227 229 230 233 236 230 233 231 234 231 232 224 227 234 239 240 244 241
213 207 207 209 209 210 211 210 210 212 217 227 224 224 226 229 231 231 229 231 238 233 230 227 227 225 227 227 232 236 243 238 243
211 209 208 210 210 211 212 213 213 214 221 226 227 226 227 228 231 233 234 239 238 238 232 231 222 227 225 227 231 241 239 239 239
216 211 207 210 211 212 213 215 215 215 217 227 232 230 229 228 231 232 233 237 239 238 238 239 235 232 232 228 232 237 237 236 229
219 215 213 213 215 214 215 216 215 217 217 218 222 229 229 229 230 231 231 233 237 239 238 236 236 234 236 232 229 233 237 239 233
223 226 226 226 222 217 217 218 216 215 216 217 217 220 223 228 229 230 230 231 232 236 236 234 234 234 234 234 234 234 236 238 239
201 215 229 227 227 228 229 221 218 215 214 214 213 214 215 223 227 227 228 230 231 234 235 235 233 233 236 236 236 238 238 236 238
223 213 244 241 227 224 222 220 218 219 216 214 209 215 218 226 227 230 232 234 237 239 239 238 238 235 235 237 237 237 238 238 240
277 274 274 274 251 234 224 223 219 218 218 216 212 215 222 227 230 230 232 236 239 241 242 242 239 237 236 236 237 237 235 238 239
279 283 283 268 247 245 247 231 224 230 229 216 216 219 226 229 230 233 234 235 237 239 241 242 241 239 237 238 239 240 241 241 242
272 274 276 261 254 255 248 248 242 235 219 222 224 229 228 231 233 235 237 238 238 238 238 239 239 239 239 239 240 242 243 243 244
258 258 259 260 256 262 258 255 254 230 222 217 216 227 233 234 236 239 240 241 242 242 238 239 238 237 240 244 246 248 249 249 247
265 261 264 266 269 270 266 258 243 225 221 218 231 230 230 233 236 237 241 245 242 237 238 232 228 232 235 239 244 248 256 258 252
280 280 280 277 276 267 254 245 230 224 220 223 241 233 229 232 235 238 241 243 242 237 234 225 231 232 237 241 254 261 280 283 258
283 276 277 279 278 265 250 238 237 229 231 245 240 232 224 228 231 229 229 235 233 230 227 227 232 237 229 226 254 249 266 248 255
280 271 268 270 268 268 239 234 229 229 247 239 232 223 223 224 226 225 215 225 220 216 220 218 223 232 233 240 237 238 244 242 258
280 271 264 259 253 249 236 231 232 233 228 223 222 217 214 218 219 213 209 207 209 208 214 219 225 229 233 242 244 250 243 260 260
280 265 248 243 231 222 219 217 215 213 213 204 196 198 200 197 191 196 197 192 201 210 217 223 225 234 239 243 249 254 267 266 252
255 244 225 202 197 177 157 181 178 174 190 185 185 185 188 187 185 186 190 200 203 205 204 218 220 225 229 243 257 270 265 263 258
189 184 164 152 141 148 150 149 152 156 160 165 173 175 186 185 186 193 197 197 199 211 219 227 228 235 241 252 260 238 162 49 251